This demonstration page uses our WeatherBlox Daily Observations layout. Learn more.

Left ArrowRight Arrow

39.12711, -84.51439

Hourly Observations for July 3, 2016

Temp ( °F °C ) Dew Point ( °F °C ) Humidity (%) Winds ( mph kmh ) Pressure ( in mb ) Visibility ( mi km ) Precip ( " mm )
12:53 am 00:53 Cloudy 66 18.9 62 16.7 87 87 N 6 9 30.10 1019 10 16 0.00 0.00
1:53 am 01:53 Cloudy 68 20 60 15.6 76 76 NNW 3 6 30.10 1019 10 16 0.00 0.00
2:53 am 02:53 Mostly Cloudy 65 18.3 61 16.1 87 87 ENE 3 6 30.09 1019 10 16 0.00 0.00
3:53 am 03:53 Mostly Clear 63 17.2 61 16.1 93 93 NE 5 7 30.08 1019 10 16 0.00 0.00
4:53 am 04:53 Mostly Clear 64 17.8 61 16.1 90 90 Calm 30.07 1018 10 16 0.00 0.00
5:53 am 05:53 Mostly Cloudy 63 17.2 62 16.7 97 97 Calm 30.07 1018 10 16 0.00 0.00
6:53 am 06:53 Cloudy with Light Rain 64 17.8 62 16.7 93 93 Calm 30.09 1019 10 16 0.00 0.03
7:53 am 07:53 Cloudy with Light Rain 65 18.3 63 17.2 93 93 Calm 30.10 1019 10 16 0.00 0.03
8:53 am 08:53 Cloudy with Rain 64 17.8 63 17.2 96 96 N 3 6 30.13 1020 4 6 0.07 1.78
9:53 am 09:53 Cloudy with Light Rain 65 18.3 64 17.8 97 97 NE 6 9 30.13 1020 6 10 0.06 1.52
10:53 am 10:53 Cloudy with Light Rain 65 18.3 65 18.3 100 100 NE 6 9 30.13 1020 6 10 0.02 0.51
11:17 am 11:17 Cloudy with Light Rain 65 18.3 65 18.3 100 100 ENE 5 7 30.09 1019 4 6 0.01 0.25
11:53 am 11:53 Cloudy with Rain 65 18.3 64 17.8 97 97 NE 6 9 30.12 1020 5 8 0.04 1.02
12:32 pm 12:32 Cloudy with Light Rain 66 19 64 18 94 94 ENE 6 9 30.09 1019 8 13 0.00 0.00
12:53 pm 12:53 Cloudy with Light Rain 67 19.4 64 17.8 91 91 E 8 13 30.10 1019 10 16 0.02 0.51
1:53 pm 13:53 Cloudy with Light Rain 67 19.4 63 17.2 87 87 NE 6 9 30.11 1020 7 11 0.00 0.03
2:53 pm 14:53 Cloudy with Light Rain 65 18.3 64 17.8 97 97 ENE 6 9 30.11 1020 5 8 0.05 1.27
3:53 pm 15:53 Cloudy with Light Rain 65 18.3 63 17.2 93 93 ESE 5 7 30.10 1019 7 11 0.01 0.25
4:53 pm 16:53 Cloudy with Light Rain 64 17.8 62 16.7 93 93 E 6 9 30.08 1019 6 10 0.05 1.27
5:31 pm 17:31 Cloudy 66 18.9 64 17.8 93 93 E 5 7 30.03 1017 10 16 0.00 0.03
5:53 pm 17:53 Cloudy 65 18.3 63 17.2 93 93 ENE 7 11 30.06 1018 10 16 0.00 0.03
6:53 pm 18:53 Cloudy 65 18.3 63 17.2 93 93 VRB 3 6 30.03 1017 10 16 0.00 0.00
7:53 pm 19:53 Cloudy 65 18.3 64 17.8 97 97 NE 7 11 30.03 1017 10 16 0.00 0.03
8:53 pm 20:53 Cloudy 64 17.8 63 17.2 96 96 NE 6 9 30.04 1017 10 16 0.00 0.00
9:53 pm 21:53 Cloudy 64 17.8 63 17.2 96 96 NE 3 6 30.03 1017 10 16 0.00 0.03
10:53 pm 22:53 Cloudy with Mist and Fog 64 17.8 63 17.2 96 96 ENE 5 7 30.02 1017 6 10 0.00 0.03
11:53 pm 23:53 Cloudy with Light Rain 64 17.8 63 17.2 96 96 E 5 7 30.00 1016 8 13 0.01 0.25

Powered by AerisWeather